Back to catalog

ELECTRON KICK STAGE R/B

AlivePO
NORAD 67559·ROCKET BODY·🇺🇸 United States

Launched Jan 22, 2026 from Rocket Lab Launch Complex 1

Loading…

Next Passes (next 24 hours)

TLE

FreshSource: Space-Track

Epoch: Sep 13, 2026, 22:23 UTC

1 67559U 26015D   26256.93299865  .00043594 -34374-6  55976-3 0  9996
2 67559  89.0341 255.1221 0416452 210.9999 146.6052 14.97016271 34726

Track ELECTRON KICK STAGE R/B in real time with AllMySat

Download on the App Store